TimeEDT,TemperatureF,Dew PointF,Humidity,Sea Level PressureIn,VisibilityMPH,Wind Direction,Wind SpeedMPH,Gust SpeedMPH,PrecipitationIn,Events,Conditions,WindDirDegrees,DateUTC
12:15 AM,57.2,33.8,41,30.01,10.0,Calm,Calm,-,N/A,,Clear,0,2013-04-24 04:15:00
12:35 AM,57.2,33.8,41,30.00,10.0,Calm,Calm,-,N/A,,Clear,0,2013-04-24 04:35:00
12:55 AM,57.2,33.8,41,30.00,10.0,Calm,Calm,-,N/A,,Clear,0,2013-04-24 04:55:00
1:15 AM,57.2,33.8,41,30.00,10.0,Calm,Calm,-,N/A,,Clear,0,2013-04-24 05:15:00
1:35 AM,55.4,35.6,47,29.99,10.0,Calm,Calm,-,N/A,,Clear,0,2013-04-24 05:35:00
1:55 AM,55.4,35.6,47,29.99,10.0,South,3.5,-,N/A,,Clear,190,2013-04-24 05:55:00
2:15 AM,55.4,37.4,51,29.99,10.0,Calm,Calm,-,N/A,,Clear,0,2013-04-24 06:15:00
2:35 AM,55.4,37.4,51,29.98,10.0,Calm,Calm,-,N/A,,Clear,0,2013-04-24 06:35:00
2:55 AM,57.2,37.4,48,29.98,10.0,Calm,Calm,-,N/A,,Clear,0,2013-04-24 06:55:00
3:15 AM,57.2,37.4,48,29.98,10.0,Calm,Calm,-,N/A,,Clear,0,2013-04-24 07:15:00
3:35 AM,55.4,37.4,51,29.98,10.0,Calm,Calm,-,N/A,,Clear,0,2013-04-24 07:35:00
3:55 AM,55.4,37.4,51,29.99,10.0,Calm,Calm,-,N/A,,Clear,0,2013-04-24 07:55:00
4:15 AM,55.4,39.2,54,29.99,10.0,Calm,Calm,-,N/A,,Clear,0,2013-04-24 08:15:00
4:35 AM,53.6,39.2,58,29.99,10.0,Calm,Calm,-,N/A,,Clear,0,2013-04-24 08:35:00
4:55 AM,55.4,39.2,54,29.99,10.0,Calm,Calm,-,N/A,,Clear,0,2013-04-24 08:55:00
5:15 AM,53.6,39.2,58,29.98,10.0,South,4.6,-,N/A,,Clear,180,2013-04-24 09:15:00
5:35 AM,55.4,39.2,54,29.98,10.0,South,3.5,-,N/A,,Clear,190,2013-04-24 09:35:00
5:55 AM,55.4,41.0,58,29.98,10.0,South,3.5,-,N/A,,Clear,190,2013-04-24 09:55:00
6:15 AM,55.4,41.0,58,29.98,10.0,South,5.8,-,N/A,,Clear,190,2013-04-24 10:15:00
6:55 AM,57.2,42.8,59,29.97,10.0,South,3.5,-,N/A,,Mostly Cloudy,190,2013-04-24 10:55:00
7:15 AM,57.2,42.8,59,29.98,10.0,South,6.9,-,N/A,,Overcast,190,2013-04-24 11:15:00
7:35 AM,57.2,42.8,59,29.98,10.0,South,10.4,-,N/A,,Overcast,190,2013-04-24 11:35:00
7:55 AM,60.8,44.6,55,29.97,10.0,South,10.4,-,N/A,,Overcast,190,2013-04-24 11:55:00
8:15 AM,62.6,44.6,52,29.96,10.0,South,12.7,20.7,N/A,,Overcast,190,2013-04-24 12:15:00
8:35 AM,62.6,44.6,52,29.96,10.0,South,12.7,17.3,N/A,,Overcast,190,2013-04-24 12:35:00
8:55 AM,64.4,44.6,49,29.95,10.0,South,11.5,16.1,N/A,,Mostly Cloudy,190,2013-04-24 12:55:00
9:15 AM,64.4,44.6,49,29.94,10.0,SSW,12.7,21.9,N/A,,Mostly Cloudy,200,2013-04-24 13:15:00
9:35 AM,66.2,46.4,49,29.93,10.0,South,13.8,18.4,N/A,,Scattered Clouds,190,2013-04-24 13:35:00
9:55 AM,68.0,46.4,46,29.92,10.0,South,10.4,27.6,N/A,,Partly Cloudy,190,2013-04-24 13:55:00
10:15 AM,69.8,48.2,46,29.91,10.0,SSW,16.1,21.9,N/A,,Partly Cloudy,200,2013-04-24 14:15:00
10:35 AM,69.8,48.2,46,29.91,10.0,SW,13.8,20.7,N/A,,Partly Cloudy,220,2013-04-24 14:35:00
10:55 AM,69.8,48.2,46,29.90,10.0,SW,11.5,20.7,N/A,,Partly Cloudy,230,2013-04-24 14:55:00
11:15 AM,69.8,48.2,46,29.90,10.0,SW,10.4,-,N/A,,Clear,230,2013-04-24 15:15:00
11:35 AM,71.6,50.0,46,29.89,10.0,SSW,12.7,24.2,N/A,,Partly Cloudy,210,2013-04-24 15:35:00
11:55 AM,73.4,50.0,44,29.86,10.0,SSW,12.7,17.3,N/A,,Partly Cloudy,200,2013-04-24 15:55:00
12:15 PM,73.4,48.2,41,29.87,10.0,SSW,15.0,19.6,N/A,,Clear,210,2013-04-24 16:15:00
12:35 PM,73.4,48.2,41,29.87,10.0,Calm,Calm,-,N/A,,Partly Cloudy,0,2013-04-24 16:35:00
12:55 PM,73.4,48.2,41,29.88,10.0,SW,15.0,19.6,N/A,,Scattered Clouds,230,2013-04-24 16:55:00
1:15 PM,71.6,48.2,43,29.86,10.0,South,16.1,23.0,N/A,,Scattered Clouds,190,2013-04-24 17:15:00
1:35 PM,73.4,48.2,41,29.85,10.0,SSW,15.0,26.5,N/A,,Clear,210,2013-04-24 17:35:00
1:55 PM,73.4,48.2,41,29.84,10.0,SSW,11.5,19.6,N/A,,Clear,200,2013-04-24 17:55:00
2:15 PM,75.2,46.4,36,29.83,10.0,SSW,23.0,32.2,N/A,,Clear,200,2013-04-24 18:15:00
2:35 PM,75.2,46.4,36,29.84,10.0,SSW,15.0,28.8,N/A,Rain,Light Rain,210,2013-04-24 18:35:00
2:55 PM,71.6,48.2,43,29.85,10.0,West,20.7,31.1,N/A,Rain,Light Rain,270,2013-04-24 18:55:00
3:15 PM,68.0,53.6,60,29.85,10.0,WSW,11.5,28.8,N/A,,Mostly Cloudy,240,2013-04-24 19:15:00
3:35 PM,71.6,51.8,50,29.84,10.0,SW,15.0,19.6,N/A,,Partly Cloudy,230,2013-04-24 19:35:00
3:55 PM,73.4,51.8,47,29.84,10.0,WSW,19.6,27.6,N/A,,Scattered Clouds,250,2013-04-24 19:55:00
4:15 PM,62.6,55.4,77,29.88,5.0,West,19.6,43.7,0.01,,Light Drizzle,280,2013-04-24 20:15:00
4:35 PM,57.2,55.4,94,29.91,1.8,SW,27.6,46.0,0.09,,Overcast,230,2013-04-24 20:35:00
4:55 PM,57.2,55.4,94,29.91,3.0,WSW,24.2,38.0,0.11,Rain,Rain,250,2013-04-24 20:55:00
5:15 PM,57.2,57.2,100,29.91,8.0,SW,16.1,28.8,0.01,,Mostly Cloudy,220,2013-04-24 21:15:00
5:35 PM,57.2,55.4,94,29.91,10.0,SW,23.0,29.9,0.01,,Scattered Clouds,220,2013-04-24 21:35:00
5:55 PM,57.2,55.4,94,29.92,10.0,SSW,15.0,28.8,0.01,,Mostly Cloudy,210,2013-04-24 21:55:00
6:15 PM,57.2,55.4,94,29.92,10.0,SSW,13.8,23.0,N/A,,Overcast,210,2013-04-24 22:15:00
6:35 PM,59.0,55.4,88,29.92,10.0,SSW,13.8,20.7,N/A,,Overcast,210,2013-04-24 22:35:00
6:55 PM,53.6,53.6,100,29.96,3.0,West,21.9,36.8,0.03,,Light Drizzle,280,2013-04-24 22:55:00
7:15 PM,51.8,51.8,100,29.99,10.0,WNW,11.5,27.6,N/A,,Overcast,290,2013-04-24 23:15:00
7:35 PM,48.2,48.2,100,30.02,3.0,WNW,16.1,26.5,0.01,Rain,Heavy Rain,290,2013-04-24 23:35:00
7:55 PM,46.4,46.4,100,30.03,7.0,West,20.7,27.6,0.03,Rain,Light Rain,280,2013-04-24 23:55:00
8:15 PM,46.4,44.6,93,30.06,10.0,West,13.8,20.7,N/A,,Overcast,270,2013-04-25 00:15:00
8:35 PM,44.6,42.8,93,30.09,10.0,West,13.8,24.2,N/A,,Overcast,270,2013-04-25 00:35:00
8:55 PM,44.6,41.0,87,30.11,9.0,West,13.8,26.5,N/A,,Overcast,260,2013-04-25 00:55:00
9:15 PM,42.8,37.4,81,30.13,10.0,West,16.1,32.2,N/A,,Overcast,280,2013-04-25 01:15:00
9:35 PM,42.8,35.6,76,30.15,10.0,West,18.4,25.3,N/A,,Overcast,280,2013-04-25 01:35:00
9:55 PM,42.8,35.6,76,30.17,10.0,WNW,12.7,19.6,N/A,,Overcast,290,2013-04-25 01:55:00
11:15 PM,39.2,37.4,93,30.20,4.0,WNW,5.8,-,N/A,,Overcast,300,2013-04-25 03:15:00
11:35 PM,39.2,39.2,100,30.20,5.0,West,3.5,-,0.01,Rain,Light Rain,280,2013-04-25 03:35:00
11:55 PM,39.2,37.4,93,30.20,8.0,West,4.6,-,0.01,Rain,Light Rain,280,2013-04-25 03:55:00